Terminal Aerodrome Forecast
Issued by NWS Spokane, WA

Home | Current Version | Previous Version | Text Only | Print | Product List | Glossary On
Versions: 1 2 3 4 5 6 7 8 9 10 11 12 13 14 15 16 17 18 19 20 21 22 23 24 25 26 27 28 29 30 31 32 33 34 35 36 37 38 39 40 41 42
000
FTUS46 KOTX 211731
TAFLWS
TAF
KLWS 211731Z 2118/2218 27016G30KT P6SM -SHRA BKN050 OVC100
     FM212100 27022G31KT P6SM VCSH BKN100
     FM220200 28009KT P6SM OVC100
     FM221000 VRB03KT P6SM BKN100=

USA.gov is the U.S. government's official web portal to all federal, state and local government web resources and services.